Regional Weather Roundup
Issued by NWS

Home | Current Version | Previous Version | Graphics & Text | Print | Product List | Glossary On
Versions: 1 2 3 4 5 6 7 8 9 10 11 12 13 14 15 16 17 18 19 20 21 22 23 24 25 26 27
000
ASUS45 KBOU 241907
RWRCO

WEATHER ROUNDUP FOR COLORADO
NATIONAL WEATHER SERVICE DENVER/BOULDER CO
100 PM MDT TUE MAY 24 2016

NOTE: "FAIR" INDICATES FEW OR NO CLOUDS BELOW 12000 FEET WITH NO
SIGNIFICANT WEATHER AND/OR OBSTRUCTIONS TO VISIBILITY.

COZ001>005-013-030-031-242000-
...NORTHWEST COLORADO...

CITY           SKY/WX    TMP DP  RH WIND       PRES   REMARKS
CRAIG          FAIR      68  26  20 W13       29.89F
HAYDEN         PTSUNNY   63  27  25 SW5       29.91F
MEEKER         FAIR      69  20  15 SW20G29   29.91F
MOUNT WERNER   NOT AVBL
STEAMBOAT SPGS FAIR      66  25  21 W15       29.91F
WALDEN         PTSUNNY   59  14  17 S21G26    30.00S
$$

COZ006>008-011-242000-
...WEST CENTRAL VALLEYS...

CITY           SKY/WX    TMP DP  RH WIND       PRES   REMARKS
GRAND JUNCTION FAIR      73  22  14 VRB6      29.85F
MONTROSE       FAIR      70  21  15 W14G26    29.90F
EAGLE          SUNNY     72  16  12 SW29G37   29.92F
RIFLE          FAIR      72  23  16 MISG      29.87F
DELTA          FAIR      77  18  11 SW17G23   29.88F
NUCLA          FAIR      72  21  15 SW16G24   29.97F
$$

COZ017>023-064>068-242000-
...SOUTHWEST COLORADO...

CITY           SKY/WX    TMP DP  RH WIND       PRES   REMARKS
DURANGO        FAIR      68  21  16 SW15G25   30.03F
CORTEZ         FAIR      72  24  16 S15G25    29.98F
PAGOSA SPRINGS FAIR      63  18  17 SW13G20   30.09F
TELLURIDE      FAIR      56  18  22 S18G25    30.09F
WOLF CREEK PAS FAIR      37  19  48 S23G44    30.29R
$$

COZ009-010-012-014-032>034-037-058>063-242000-
...CENTRAL COLORADO...

CITY           SKY/WX    TMP DP  RH WIND       PRES   REMARKS
ASPEN          FAIR      67  20  16 SW16G29   29.96F
BUENA VISTA    FAIR      65  14  13 E14G24    29.99F
COPPER MTN     NOT AVBL
BERTHOUD PASS  PTSUNNY   36  28  75 SE24      30.24S
COTTONWOOD PAS FAIR      63   0   8 SE15G22   30.09F
GUNNISON       FAIR      63  18  17 W5        30.01F
KREMMLING      FAIR      68  14  12 W9        29.95F
LEADVILLE      FAIR      57   4  12 S10G25    30.07F
MONARCH PASS   FAIR      43  18  36 SW22G35   30.32R
SALIDA         FAIR      71  15  11 SW9G21    30.06S
SUNLIGHT       FAIR      50  21  32 CALM      30.16R
WILKERSON PASS FAIR      55  23  28 SW7       30.21F
$$

COZ069>075-242000-
...SAN LUIS VALLEY/SANGRE DE CRISTO MOUNTAINS...

CITY           SKY/WX    TMP DP  RH WIND       PRES   REMARKS
ALAMOSA        FAIR      69  20  15 SW22G29   30.04S
LA VETA PASS   FAIR      61  21  21 S12G18    30.19S
SAGUACHE       FAIR      64  21  19 S10G24    30.05S
$$

COZ035-036-038>040-242000-
...NORTHERN COLORADO FRONT RANGE...

CITY           SKY/WX    TMP DP  RH WIND       PRES   REMARKS
DENVER INTL AP PTSUNNY   70  47  43 SE10G23   29.90F
DMNS CITY PARK   N/A     70  44  38 E7G23     29.89F
AURORA         PTSUNNY   69  48  46 SE16G24   29.92F
FRONT RANGE AP PTSUNNY   72  48  43 SE18G26   29.93F
ERIE MUNI ARPT PTSUNNY   71  45  39 S8        29.90F
BOULDER MUN AP FAIR      68  45  42 E6        29.91F
CENTENNIAL     FAIR      69  42  37 E9G22     29.92F
BROOMFIELD     PTSUNNY   70  45  40 E7        29.92F
FORT COLLINS   PTSUNNY   68  48  49 S8        29.92F
LONGMONT       PTSUNNY   71  47  42 S3        29.92F
$$

COZ041-046-047-076>085-087-088-242000-
...PIKES PEAK/PALMER DIVIDE AND SOUTHERN FOOTHILLS...

CITY           SKY/WX    TMP DP  RH WIND       PRES   REMARKS
COLO. SPRINGS  FAIR      69  42  37 SE15G23   29.97F
A. F. ACADEMY  FAIR      68  41  37 S13       29.96F
SCHRIEVER AFB  NOT AVBL
ELLICOTT       FAIR     N/A N/A N/A S12G24    29.96F
FALCON         FAIR      68  40  36 SE15G21   30.01F
FORT CARSON    FAIR      69  45  42 E7G18     29.94F
LIMON          PTSUNNY   67  52  58 S17G24    29.96F
MONUMENT HILL  FAIR      64  45  48 S13G25    30.01S
TRINIDAD       FAIR      75  37  25 E13       29.93F
$$

COZ042>045-048>051-090-091-242000-
...NORTHEAST COLORADO...

CITY           SKY/WX    TMP DP  RH WIND       PRES   REMARKS
GREELEY ARPT   FAIR      73  50  43 SE14G25   29.92F
AKRON          FAIR      72  52  49 SE25G32   29.92F
BURLINGTON     CLOUDY    71  56  58 SE21      29.92F
WRAY           PTSUNNY   73  55  53 SE18      29.91S
STERLING       FAIR      73  50  43 SE14G21   29.90F
HOLYOKE        FAIR      79  48  34 SE22G33   29.91F
FORT MORGAN    PTSUNNY   75  44  33 SE21G28   29.91F
$$

COZ086-089-092>099-242000-
...SOUTHEAST COLORADO...

CITY           SKY/WX    TMP DP  RH WIND       PRES   REMARKS
PUEBLO         FAIR      75  46  35 SE9       29.89F
LA JUNTA       FAIR      78  45  30 S8        29.89F
LAMAR          FAIR      78  59  51 E8        29.85F
SPRINGFIELD      N/A     78  49  35 SE6       29.89F
$$




USA.gov is the U.S. government's official web portal to all federal, state and local government web resources and services.